Location: ?????
(44.4284°N, 135.2222°E)
Time: 11:53:58
(UTC+00:00)

Cosmos 2333 Rocket - Pass Details

Date: 19 May 2025
Orbit: 840 x 862 km, 70.8° (Epoch: 13 June)

Event Time Altitude Azimuth Distance (km) Brightness Sun altitude
Rises 15:19:43 0° 330° (NNW) 3,435 6.2 -25.4°
Reaches altitude 10° 15:22:13 10° 326° (NNW) 2,492 5.3 -25.4°
Maximum altitude 15:27:47 55° 250° (WSW) 1,015 2.4 -25.2°
Enters shadow 15:27:57 55° 243° (WSW) 1,017 2.3 -25.2°
